Home   Weather   Mayhill   Past weeks
Flag for USA

Past Weather in Mayhill, New Mexico, USA — Yesterday and Last 2 Weeks

Now
63 °F

Sunny.


Feels Like: 63 °F
Forecast: 65 / 37 °F
Wind: 7 mph from Southwest

Location: Alamogordo-White

Current Time: Mar 19, 2019 at 1:35:50 pm

Latest Report: Mar 19, 2019 at 1:15 pm


Visibility: 10 mi

Pressure: 30.17 "Hg

Humidity: 27%

Dew Point: 28 °F

Location of MayhillLocation

Past Weather in Mayhill — Graph

°F

Mayhill Temperature Yesterday

Maximum temperature yesterday: 64 °F (at 2:35 pm)
Minimum temperature yesterday: 37 °F (at 5:35 am)
Average temperature yesterday: 50 °F

High & Low Weather Summary for the Past Weeks

 TemperatureHumidityPressure
High75 °F (Mar 12, 1:55 pm)100% (Mar 17, 2:35 am)30.37 "Hg (Mar 17, 2:35 am)
Low27 °F (Mar 5, 2:35 am)10% (Mar 9, 1:15 pm)29.46 "Hg (Mar 12, 2:55 pm)
Average51 °F45%30.08 "Hg
* Reported Mar 4 11:15 am — Mar 19 12:35 pm, Mayhill. Weather by CustomWeather, © 2019

Note: Actual official high and low records may vary slightly from our data, if they occured in-between our weather recording intervals... More about our weather records

Advertising

Mayhill Weather History for the Previous 24 Hours

Scroll right to see more
 ConditionsComfort  
Time TempWeatherWind HumidityBarometerVisibility
12:35 pm
Tue, Mar 19
59 °FSunny.3 mph31%30.18 "Hg10 mi
11:55 am57 °FSunny.No wind33%30.20 "Hg10 mi
11:35 am57 °FSunny.No wind33%30.21 "Hg10 mi
11:15 am55 °FSunny.6 mph36%30.21 "Hg10 mi
10:55 am55 °FSunny.7 mph36%30.22 "Hg10 mi
10:35 am55 °FSunny.7 mph36%30.21 "Hg10 mi
10:15 am54 °FSunny.3 mph38%30.22 "Hg10 mi
9:55 am54 °FSunny.3 mph38%30.21 "Hg10 mi
9:35 am50 °FSunny.No wind43%30.22 "Hg10 mi
9:15 am50 °FSunny.6 mph47%30.22 "Hg10 mi
8:55 am48 °FSunny.6 mph46%30.22 "Hg10 mi
8:35 am45 °FSunny.8 mph53%30.22 "Hg10 mi
8:15 am41 °FSunny.7 mph61%30.21 "Hg10 mi
7:35 am32 °FSunny.No wind80%30.20 "Hg10 mi
7:15 am34 °FSunny.3 mph70%30.20 "Hg10 mi
6:55 am36 °FClear.5 mph65%30.19 "Hg10 mi
6:35 am36 °FClear.3 mph65%30.19 "Hg10 mi
6:15 am34 °FClear.No wind70%30.19 "Hg10 mi
5:55 am36 °FClear.3 mph65%30.18 "Hg10 mi
5:35 am37 °FClear.5 mph65%30.18 "Hg10 mi
5:15 am39 °FClear.3 mph61%30.18 "Hg10 mi
4:55 am41 °FClear.7 mph57%30.17 "Hg10 mi
4:35 am39 °FClear.8 mph61%30.17 "Hg10 mi
4:15 am39 °FClear.5 mph61%30.18 "Hg10 mi
3:55 am41 °FClear.3 mph57%30.18 "Hg10 mi
3:35 am39 °FClear.6 mph61%30.19 "Hg10 mi
3:15 am37 °FClear.6 mph65%30.19 "Hg10 mi
2:55 am39 °FClear.3 mph61%30.19 "Hg10 mi
2:35 am41 °FClear.No wind57%30.18 "Hg10 mi
2:15 am41 °FClear.3 mph57%30.18 "Hg10 mi
1:35 am45 °FClear.No wind49%30.18 "Hg10 mi
1:15 am46 °FClear.No wind46%30.18 "Hg10 mi
12:55 am45 °FClear.6 mph49%30.18 "Hg10 mi
12:35 am45 °FClear.5 mph53%30.18 "Hg10 mi
12:15 am46 °FClear.5 mph50%30.19 "Hg10 mi
11:55 pm
Mon, Mar 18
48 °FClear.9 mph46%30.19 "Hg10 mi
11:35 pm48 °FClear.10 mph46%30.19 "Hg10 mi
11:15 pm48 °FClear.13 mph46%30.19 "Hg10 mi
10:55 pm48 °FClear.12 mph46%30.19 "Hg10 mi
10:35 pm50 °FClear.14 mph43%30.18 "Hg10 mi
10:15 pm48 °FClear.10 mph46%30.18 "Hg10 mi
9:55 pm48 °FClear.12 mph46%30.18 "Hg10 mi
9:35 pm48 °FClear.13 mph46%30.18 "Hg10 mi
9:15 pm50 °FClear.12 mph43%30.17 "Hg10 mi
8:55 pm50 °FClear.10 mph43%30.17 "Hg10 mi
8:35 pm50 °FClear.14 mph43%30.16 "Hg10 mi
8:15 pm50 °FClear.10 mph43%30.16 "Hg10 mi
7:55 pm50 °FClear.10 mph43%30.15 "Hg10 mi
7:35 pm52 °FClear.9 mph41%30.15 "Hg10 mi
6:55 pm57 °FSunny.10 mph31%30.14 "Hg10 mi
6:35 pm59 °FSunny.12 mph29%30.14 "Hg10 mi
5:55 pm61 °FSunny.12 mph27%30.14 "Hg10 mi
5:35 pm63 °FSunny.12 mph27%30.13 "Hg10 mi
5:15 pm63 °FSunny.12 mph25%30.13 "Hg10 mi
4:35 pm63 °FSunny.12 mph25%30.14 "Hg10 mi
4:15 pm64 °FSunny.12 mph24%30.15 "Hg10 mi
3:35 pm63 °FScattered clouds.12 mph25%30.15 "Hg10 mi
3:15 pm63 °FScattered clouds.12 mph25%30.15 "Hg10 mi
2:55 pm63 °FPassing clouds.14 mph27%30.16 "Hg10 mi
2:35 pm64 °FSunny.12 mph26%30.17 "Hg10 mi
2:15 pm63 °FSunny.7 mph27%30.18 "Hg10 mi
1:55 pm63 °FSunny.9 mph30%30.19 "Hg10 mi
1:35 pm61 °FSunny.5 mph29%30.21 "Hg10 mi
1:15 pm59 °FSunny.5 mph31%30.22 "Hg10 mi
Weather by CustomWeather, © 2019

See weather overview